This is the latest recevied weather packets stored in our database for station/object SPDRWX. If no packets are shown the sender has not sent any weather packets the latest 10 day(s).
| Time | Temp. | Humidity | Pressure | Rain* | Wind** | Luminosity | Snow |
|---|---|---|---|---|---|---|---|
| 1778263660 | 17.78° C | 10% | 1017 hPa | 0 mm | - | - | - |
| 1778263260 | 17.22° C | 10% | 1017 hPa | 0 mm | - | - | - |
| 1778262723 | 17.22° C | 10% | 1016.9 hPa | 0 mm | - | - | - |
| 1778262117 | 17.22° C | 10% | 1016.9 hPa | 0 mm | - | - | - |
| 1778261973 | 17.22° C | 10% | 1017 hPa | 0 mm | - | - | - |
| 1778261729 | 17.22° C | 11% | 1016.9 hPa | 0 mm | - | - | - |
| 1778260672 | 17.22° C | 11% | 1016.9 hPa | 0 mm | - | - | - |
| 1778260369 | 17.22° C | 11% | 1016.9 hPa | 0 mm | - | - | - |
| 1778260255 | 17.22° C | 11% | 1016.9 hPa | 0 mm | - | - | - |
| 1778259955 | 17.22° C | 11% | 1016.7 hPa | 0 mm | - | - | - |
| 1778259050 | 17.22° C | 12% | 1016.8 hPa | 0 mm | - | - | - |
| 1778258749 | 17.22° C | 12% | 1016.8 hPa | 0 mm | - | - | - |
| 1778258659 | 17.22° C | 12% | 1016.6 hPa | 0 mm | - | - | - |
| 1778258468 | 17.22° C | 13% | 1016.8 hPa | 0 mm | - | - | - |
| 1778258036 | 16.67° C | 15% | 1016.7 hPa | 0 mm | - | - | - |
| 1778257429 | 16.11° C | 16% | 1016.6 hPa | 0 mm | - | - | - |
| 1778256828 | 15.56° C | 17% | 1016.7 hPa | 0 mm | - | - | - |
| 1778256526 | 15.56° C | 18% | 1016.8 hPa | 0 mm | - | - | - |
| 1778256227 | 15° C | 19% | 1016.7 hPa | 0 mm | - | - | - |
| 1778255926 | 14.44° C | 19% | 1016.7 hPa | 0 mm | - | - | - |
| 1778255622 | 13.89° C | 20% | 1016.7 hPa | 0 mm | - | - | - |
| 1778255321 | 13.89° C | 20% | 1016.7 hPa | 0 mm | - | - | - |
| 1778255018 | 13.33° C | 21% | 1016.8 hPa | 0 mm | - | - | - |
| 1778254416 | 12.78° C | 22% | 1016.7 hPa | 0 mm | - | - | - |
| 1778254124 | 12.22° C | 22% | 1016.8 hPa | 0 mm | - | - | - |
* Rain since midnight (hover to see other rain measurements)
** Current wind speed in m/s (hover to see current wind gust speed)